LEMUR-2-PAPPY (44861 NORAD) Tracking and Keplerian Element Data

This shows tracking and keplerian element data for the satellite.

Feedback or suggestion? Click here.




ElementValue
Catalog44861
NameLEMUR-2-PAPPY
Epoch Orbit1691
Epoch Day93.65088326
Epoch Year2020
RAAN186.6494
Inclination36.9664
Eccentricity0.0004606
Argument of Perigee164.7482
Mean Anonmoly195.3399
Mean Motion14.98729892
Decay Rate8.94E-06
L11 44861U 19089K 20093.65088326 .00000894 00000-0 79334-4 0 9993
L22 44861 36.9664 186.6494 0004606 164.7482 195.3399 14.98729892 16910

Live tracking and technical data element details for LEMUR-2-PAPPY (NORAD 44861). LEMUR-2-PAPPY can be tracked NOW for your location showing map with azimuth and elevation plus other details from your city location.

Track the satellite on the map from your city or location and see movement details for azimuth, elevation, latitude, longitude, range, height, and movement on the map or in text.







IsCatalogInMostPopularTable: catalog: 44861, numindb: 40
Update: records affected: 1



GetName: 44861 LEMUR-2-PAPPY

Hit Count: updated at: Sat, 04 Apr 2020 00:07:23 GMT